Wetterdaten: Mittwoch, 09.12.2015
Datum Zeit Temp. A. Feuchte A. Luftdruck Regen Wind Richtung Richtung Sonnenschein ET UV Solar Taupunkt Windchill Windben Empfang
09.12.2015 00:00 0,6 C 99 % 1033,9 hPa 0,0 l/m 0,8 km/h (0 Bft) S 186 0 min 0,000 mm 0,0 UV-I 0 W/m 0,5 C 0,6 C 4,8 km/h (1 Bft) 96,83 %
09.12.2015 00:05 0,6 C 99 % 1033,9 hPa 0,0 l/m 3,2 km/h (1 Bft) S 171 0 min 0,000 mm 0,0 UV-I 0 W/m 0,5 C 0,6 C 8,0 km/h (2 Bft) 98,17 %
09.12.2015 00:10 0,5 C 99 % 1033,9 hPa 0,0 l/m 3,0 km/h (1 Bft) S-SO 166 0 min 0,000 mm 0,0 UV-I 0 W/m 0,4 C 0,5 C 6,4 km/h (2 Bft) 96,85 %
09.12.2015 00:15 0,5 C 99 % 1033,8 hPa 0,0 l/m 4,1 km/h (1 Bft) S 189 0 min 0,000 mm 0,0 UV-I 0 W/m 0,4 C 0,5 C 8,0 km/h (2 Bft) 97,30 %
09.12.2015 00:20 0,5 C 99 % 1033,8 hPa 0,0 l/m 4,0 km/h (1 Bft) S 175 0 min 0,000 mm 0,0 UV-I 0 W/m 0,4 C 0,5 C 8,0 km/h (2 Bft) 97,46 %
09.12.2015 00:25 0,4 C 99 % 1033,8 hPa 0,0 l/m 4,4 km/h (1 Bft) S-SW 205 0 min 0,000 mm 0,0 UV-I 0 W/m 0,3 C 0,4 C 6,4 km/h (2 Bft) 98,21 %
09.12.2015 00:30 0,4 C 99 % 1033,8 hPa 0,0 l/m 3,5 km/h (1 Bft) S 174 0 min 0,000 mm 0,0 UV-I 0 W/m 0,3 C 0,4 C 6,4 km/h (2 Bft) 100,00 %
09.12.2015 00:35 0,4 C 99 % 1033,8 hPa 0,0 l/m 3,3 km/h (1 Bft) S-SO 167 0 min 0,000 mm 0,0 UV-I 0 W/m 0,3 C 0,4 C 6,4 km/h (2 Bft) 98,21 %
09.12.2015 00:40 0,3 C 99 % 1033,7 hPa 0,0 l/m 2,2 km/h (1 Bft) S 173 0 min 0,000 mm 0,0 UV-I 0 W/m 0,2 C 0,3 C 6,4 km/h (2 Bft) 98,37 %
09.12.2015 00:45 0,3 C 99 % 1033,6 hPa 0,0 l/m 2,2 km/h (1 Bft) S 186 0 min 0,000 mm 0,0 UV-I 0 W/m 0,2 C 0,3 C 4,8 km/h (1 Bft) 100,00 %
09.12.2015 00:50 0,3 C 99 % 1033,7 hPa 0,0 l/m 1,9 km/h (1 Bft) S-SW 196 0 min 0,000 mm 0,0 UV-I 0 W/m 0,2 C 0,3 C 3,2 km/h (1 Bft) 99,11 %
09.12.2015 00:55 0,2 C 99 % 1033,6 hPa 0,0 l/m 2,0 km/h (1 Bft) S-SW 196 0 min 0,000 mm 0,0 UV-I 0 W/m 0,1 C 0,2 C 4,8 km/h (1 Bft) 99,19 %
09.12.2015 01:00 0,2 C 99 % 1033,6 hPa 0,0 l/m 1,3 km/h (1 Bft) S-SW 196 0 min 0,000 mm 0,0 UV-I 0 W/m 0,1 C 0,2 C 3,2 km/h (1 Bft) 100,00 %
09.12.2015 01:05 0,2 C 99 % 1033,5 hPa 0,0 l/m 0,5 km/h (0 Bft) S-SW 196 0 min 0,000 mm 0,0 UV-I 0 W/m 0,1 C 0,2 C 1,6 km/h (1 Bft) 98,21 %
09.12.2015 01:10 0,2 C 99 % 1033,5 hPa 0,0 l/m 0,5 km/h (0 Bft) S-SW 207 0 min 0,000 mm 0,0 UV-I 0 W/m 0,1 C 0,2 C 1,6 km/h (1 Bft) 98,37 %
09.12.2015 01:15 0,2 C 99 % 1033,6 hPa 0,0 l/m 1,4 km/h (1 Bft) S-SW 207 0 min 0,000 mm 0,0 UV-I 0 W/m 0,1 C 0,2 C 3,2 km/h (1 Bft) 99,15 %
09.12.2015 01:20 0,2 C 99 % 1033,6 hPa 0,0 l/m 1,7 km/h (1 Bft) S-SW 209 0 min 0,000 mm 0,0 UV-I 0 W/m 0,1 C 0,2 C 3,2 km/h (1 Bft) 100,00 %
09.12.2015 01:25 0,2 C 99 % 1033,6 hPa 0,0 l/m 3,1 km/h (1 Bft) SW 232 0 min 0,000 mm 0,0 UV-I 0 W/m 0,1 C 0,2 C 4,8 km/h (1 Bft) 98,41 %
09.12.2015 01:30 0,2 C 99 % 1033,6 hPa 0,0 l/m 2,2 km/h (1 Bft) W 264 0 min 0,000 mm 0,0 UV-I 0 W/m 0,1 C 0,2 C 4,8 km/h (1 Bft) 100,00 %
09.12.2015 01:35 0,2 C 99 % 1033,7 hPa 0,0 l/m 2,3 km/h (1 Bft) W 264 0 min 0,000 mm 0,0 UV-I 0 W/m 0,1 C 0,2 C 4,8 km/h (1 Bft) 99,12 %
09.12.2015 01:40 0,2 C 99 % 1033,6 hPa 0,0 l/m 3,2 km/h (1 Bft) S-SW 199 0 min 0,000 mm 0,0 UV-I 0 W/m 0,1 C 0,2 C 6,4 km/h (2 Bft) 100,00 %
09.12.2015 01:45 0,2 C 99 % 1033,7 hPa 0,0 l/m 2,0 km/h (1 Bft) S-SW 198 0 min 0,000 mm 0,0 UV-I 0 W/m 0,1 C 0,2 C 3,2 km/h (1 Bft) 98,11 %
09.12.2015 01:50 0,1 C 99 % 1033,7 hPa 0,0 l/m 2,0 km/h (1 Bft) S-SW 198 0 min 0,000 mm 0,0 UV-I 0 W/m -0,0 C 0,1 C 4,8 km/h (1 Bft) 97,67 %
09.12.2015 01:55 0,1 C 99 % 1033,7 hPa 0,0 l/m 3,8 km/h (1 Bft) S-SW 198 0 min 0,000 mm 0,0 UV-I 0 W/m -0,0 C 0,1 C 6,4 km/h (2 Bft) 97,39 %
09.12.2015 02:00 0,1 C 99 % 1033,8 hPa 0,0 l/m 1,4 km/h (1 Bft) S-SW 198 0 min 0,000 mm 0,0 UV-I 0 W/m -0,0 C 0,1 C 3,2 km/h (1 Bft) 97,17 %
09.12.2015 02:05 0,1 C 99 % 1033,8 hPa 0,0 l/m 1,5 km/h (1 Bft) S-SW 198 0 min 0,000 mm 0,0 UV-I 0 W/m -0,0 C 0,1 C 3,2 km/h (1 Bft) 96,75 %
09.12.2015 02:10 0,2 C 99 % 1033,8 hPa 0,0 l/m 1,4 km/h (1 Bft) S-SW 198 0 min 0,000 mm 0,0 UV-I 0 W/m 0,1 C 0,2 C 3,2 km/h (1 Bft) 97,46 %
09.12.2015 02:15 0,1 C 99 % 1033,9 hPa 0,0 l/m 1,5 km/h (1 Bft) S-SW 198 0 min 0,000 mm 0,0 UV-I 0 W/m -0,0 C 0,1 C 3,2 km/h (1 Bft) 95,93 %
09.12.2015 02:20 0,1 C 99 % 1033,9 hPa 0,0 l/m 1,3 km/h (1 Bft) S-SW 198 0 min 0,000 mm 0,0 UV-I 0 W/m -0,0 C 0,1 C 3,2 km/h (1 Bft) 97,46 %
09.12.2015 02:25 0,1 C 99 % 1033,9 hPa 0,0 l/m 2,6 km/h (1 Bft) S-SW 198 0 min 0,000 mm 0,0 UV-I 0 W/m -0,0 C 0,1 C 4,8 km/h (1 Bft) 100,00 %
09.12.2015 02:30 0,2 C 99 % 1033,9 hPa 0,0 l/m 2,7 km/h (1 Bft) S 187 0 min 0,000 mm 0,0 UV-I 0 W/m 0,1 C 0,2 C 6,4 km/h (2 Bft) 98,15 %
09.12.2015 02:35 0,2 C 99 % 1034,0 hPa 0,0 l/m 3,1 km/h (1 Bft) S 178 0 min 0,000 mm 0,0 UV-I 0 W/m 0,1 C 0,2 C 6,4 km/h (2 Bft) 98,39 %
09.12.2015 02:40 0,2 C 99 % 1033,9 hPa 0,0 l/m 3,3 km/h (1 Bft) S 178 0 min 0,000 mm 0,0 UV-I 0 W/m 0,1 C 0,2 C 4,8 km/h (1 Bft) 100,00 %
09.12.2015 02:45 0,2 C 99 % 1033,9 hPa 0,0 l/m 2,6 km/h (1 Bft) S 177 0 min 0,000 mm 0,0 UV-I 0 W/m 0,1 C 0,2 C 4,8 km/h (1 Bft) 97,46 %
09.12.2015 02:50 0,2 C 99 % 1033,8 hPa 0,0 l/m 2,1 km/h (1 Bft) S 177 0 min 0,000 mm 0,0 UV-I 0 W/m 0,1 C 0,2 C 4,8 km/h (1 Bft) 99,13 %
09.12.2015 02:55 0,2 C 99 % 1033,8 hPa 0,0 l/m 2,8 km/h (1 Bft) S 178 0 min 0,000 mm 0,0 UV-I 0 W/m 0,1 C 0,2 C 4,8 km/h (1 Bft) 99,15 %
09.12.2015 03:00 0,2 C 99 % 1033,8 hPa 0,0 l/m 2,3 km/h (1 Bft) SW 236 0 min 0,000 mm 0,0 UV-I 0 W/m 0,1 C 0,2 C 4,8 km/h (1 Bft) 100,00 %
09.12.2015 03:05 0,2 C 99 % 1033,7 hPa 0,0 l/m 3,2 km/h (1 Bft) S-SW 211 0 min 0,000 mm 0,0 UV-I 0 W/m 0,1 C 0,2 C 6,4 km/h (2 Bft) 98,21 %
09.12.2015 03:10 0,2 C 99 % 1033,7 hPa 0,0 l/m 4,8 km/h (1 Bft) W 270 0 min 0,000 mm 0,0 UV-I 0 W/m 0,1 C 0,2 C 6,4 km/h (2 Bft) 99,10 %
09.12.2015 03:15 0,2 C 99 % 1033,7 hPa 0,0 l/m 5,0 km/h (1 Bft) W-SW 244 0 min 0,000 mm 0,0 UV-I 0 W/m 0,1 C 0,2 C 8,0 km/h (2 Bft) 100,00 %
09.12.2015 03:20 0,2 C 99 % 1033,6 hPa 0,0 l/m 5,4 km/h (1 Bft) W-SW 252 0 min 0,000 mm 0,0 UV-I 0 W/m 0,1 C 0,2 C 9,7 km/h (2 Bft) 98,37 %
09.12.2015 03:25 0,2 C 99 % 1033,6 hPa 0,0 l/m 4,8 km/h (1 Bft) SW 221 0 min 0,000 mm 0,0 UV-I 0 W/m 0,1 C 0,2 C 8,0 km/h (2 Bft) 100,00 %
09.12.2015 03:30 0,2 C 99 % 1033,6 hPa 0,0 l/m 2,2 km/h (1 Bft) SW 219 0 min 0,000 mm 0,0 UV-I 0 W/m 0,1 C 0,2 C 4,8 km/h (1 Bft) 97,46 %
09.12.2015 03:35 0,2 C 99 % 1033,6 hPa 0,0 l/m 2,1 km/h (1 Bft) SW 219 0 min 0,000 mm 0,0 UV-I 0 W/m 0,1 C 0,2 C 4,8 km/h (1 Bft) 100,00 %
09.12.2015 03:40 0,2 C 99 % 1033,6 hPa 0,0 l/m 1,3 km/h (1 Bft) SW 219 0 min 0,000 mm 0,0 UV-I 0 W/m 0,1 C 0,2 C 3,2 km/h (1 Bft) 99,15 %
09.12.2015 03:45 0,2 C 99 % 1033,6 hPa 0,0 l/m 4,1 km/h (1 Bft) S 188 0 min 0,000 mm 0,0 UV-I 0 W/m 0,1 C 0,2 C 6,4 km/h (2 Bft) 100,00 %
09.12.2015 03:50 0,2 C 99 % 1033,5 hPa 0,0 l/m 4,2 km/h (1 Bft) S-SW 205 0 min 0,000 mm 0,0 UV-I 0 W/m 0,1 C 0,2 C 8,0 km/h (2 Bft) 98,17 %
09.12.2015 03:55 0,3 C 99 % 1033,5 hPa 0,0 l/m 3,1 km/h (1 Bft) SW 226 0 min 0,000 mm 0,0 UV-I 0 W/m 0,2 C 0,3 C 6,4 km/h (2 Bft) 97,58 %
09.12.2015 04:00 0,3 C 99 % 1033,6 hPa 0,0 l/m 2,7 km/h (1 Bft) S-SW 207 0 min 0,000 mm 0,0 UV-I 0 W/m 0,2 C 0,3 C 4,8 km/h (1 Bft) 97,44 %
09.12.2015 04:05 0,3 C 99 % 1033,6 hPa 0,0 l/m 2,4 km/h (1 Bft) SW 225 0 min 0,000 mm 0,0 UV-I 0 W/m 0,2 C 0,3 C 4,8 km/h (1 Bft) 96,26 %
09.12.2015 04:10 0,3 C 99 % 1033,6 hPa 0,0 l/m 2,0 km/h (1 Bft) SW 224 0 min 0,000 mm 0,0 UV-I 0 W/m 0,2 C 0,3 C 4,8 km/h (1 Bft) 97,35 %
09.12.2015 04:15 0,3 C 99 % 1033,6 hPa 0,0 l/m 2,4 km/h (1 Bft) SW 218 0 min 0,000 mm 0,0 UV-I 0 W/m 0,2 C 0,3 C 6,4 km/h (2 Bft) 97,37 %
09.12.2015 04:20 0,4 C 99 % 1033,6 hPa 0,0 l/m 2,2 km/h (1 Bft) SW 218 0 min 0,000 mm 0,0 UV-I 0 W/m 0,3 C 0,4 C 4,8 km/h (1 Bft) 97,52 %
09.12.2015 04:25 0,3 C 99 % 1033,6 hPa 0,0 l/m 2,7 km/h (1 Bft) W-SW 248 0 min 0,000 mm 0,0 UV-I 0 W/m 0,2 C 0,3 C 6,4 km/h (2 Bft) 97,32 %
09.12.2015 04:30 0,3 C 99 % 1033,6 hPa 0,0 l/m 3,7 km/h (1 Bft) S-SW 212 0 min 0,000 mm 0,0 UV-I 0 W/m 0,2 C 0,3 C 6,4 km/h (2 Bft) 100,00 %
09.12.2015 04:35 0,3 C 99 % 1033,6 hPa 0,0 l/m 2,6 km/h (1 Bft) S 188 0 min 0,000 mm 0,0 UV-I 0 W/m 0,2 C 0,3 C 4,8 km/h (1 Bft) 94,69 %
09.12.2015 04:40 0,3 C 99 % 1033,6 hPa 0,0 l/m 2,4 km/h (1 Bft) SW 228 0 min 0,000 mm 0,0 UV-I 0 W/m 0,2 C 0,3 C 4,8 km/h (1 Bft) 100,00 %
09.12.2015 04:45 0,4 C 99 % 1033,6 hPa 0,0 l/m 3,2 km/h (1 Bft) S 178 0 min 0,000 mm 0,0 UV-I 0 W/m 0,3 C 0,4 C 8,0 km/h (2 Bft) 97,46 %
09.12.2015 04:50 0,3 C 99 % 1033,7 hPa 0,0 l/m 3,6 km/h (1 Bft) W-SW 249 0 min 0,000 mm 0,0 UV-I 0 W/m 0,2 C 0,3 C 6,4 km/h (2 Bft) 100,00 %
09.12.2015 04:55 0,4 C 99 % 1033,7 hPa 0,0 l/m 3,4 km/h (1 Bft) SW 221 0 min 0,000 mm 0,0 UV-I 0 W/m 0,3 C 0,4 C 6,4 km/h (2 Bft) 100,00 %
09.12.2015 05:00 0,4 C 99 % 1033,7 hPa 0,0 l/m 3,5 km/h (1 Bft) W-SW 254 0 min 0,000 mm 0,0 UV-I 0 W/m 0,3 C 0,4 C 6,4 km/h (2 Bft) 100,00 %
09.12.2015 05:05 0,4 C 99 % 1033,7 hPa 0,0 l/m 4,7 km/h (1 Bft) SW 229 0 min 0,000 mm 0,0 UV-I 0 W/m 0,3 C 0,4 C 8,0 km/h (2 Bft) 98,17 %
09.12.2015 05:10 0,4 C 99 % 1033,7 hPa 0,0 l/m 3,4 km/h (1 Bft) SW 225 0 min 0,000 mm 0,0 UV-I 0 W/m 0,3 C 0,4 C 6,4 km/h (2 Bft) 100,00 %
09.12.2015 05:15 0,4 C 99 % 1033,8 hPa 0,0 l/m 4,5 km/h (1 Bft) S 182 0 min 0,000 mm 0,0 UV-I 0 W/m 0,3 C 0,4 C 6,4 km/h (2 Bft) 99,13 %
09.12.2015 05:20 0,4 C 99 % 1033,8 hPa 0,0 l/m 4,5 km/h (1 Bft) SW 232 0 min 0,000 mm 0,0 UV-I 0 W/m 0,3 C 0,4 C 8,0 km/h (2 Bft) 100,00 %
09.12.2015 05:25 0,3 C 99 % 1033,8 hPa 0,0 l/m 4,5 km/h (1 Bft) SW 229 0 min 0,000 mm 0,0 UV-I 0 W/m 0,2 C 0,3 C 8,0 km/h (2 Bft) 98,37 %
09.12.2015 05:30 0,3 C 99 % 1033,8 hPa 0,0 l/m 4,5 km/h (1 Bft) S-SW 204 0 min 0,000 mm 0,0 UV-I 0 W/m 0,2 C 0,3 C 8,0 km/h (2 Bft) 99,15 %
09.12.2015 05:35 0,3 C 99 % 1033,8 hPa 0,0 l/m 4,8 km/h (1 Bft) SW 224 0 min 0,000 mm 0,0 UV-I 0 W/m 0,2 C 0,3 C 8,0 km/h (2 Bft) 98,20 %
09.12.2015 05:40 0,3 C 99 % 1033,8 hPa 0,0 l/m 3,2 km/h (1 Bft) S-SW 194 0 min 0,000 mm 0,0 UV-I 0 W/m 0,2 C 0,3 C 6,4 km/h (2 Bft) 99,21 %
09.12.2015 05:45 0,3 C 99 % 1033,8 hPa 0,0 l/m 5,1 km/h (1 Bft) S-SW 198 0 min 0,000 mm 0,0 UV-I 0 W/m 0,2 C 0,3 C 8,0 km/h (2 Bft) 100,00 %
09.12.2015 05:50 0,3 C 99 % 1033,7 hPa 0,0 l/m 3,9 km/h (1 Bft) S-SW 195 0 min 0,000 mm 0,0 UV-I 0 W/m 0,2 C 0,3 C 6,4 km/h (2 Bft) 97,37 %
09.12.2015 05:55 0,3 C 99 % 1033,7 hPa 0,0 l/m 3,9 km/h (1 Bft) S 177 0 min 0,000 mm 0,0 UV-I 0 W/m 0,2 C 0,3 C 6,4 km/h (2 Bft) 98,35 %
09.12.2015 06:00 0,3 C 99 % 1033,7 hPa 0,0 l/m 6,2 km/h (2 Bft) SW 219 0 min 0,000 mm 0,0 UV-I 0 W/m 0,2 C 0,3 C 9,7 km/h (2 Bft) 97,39 %
09.12.2015 06:05 0,3 C 99 % 1033,7 hPa 0,0 l/m 5,6 km/h (1 Bft) S 186 0 min 0,000 mm 0,0 UV-I 0 W/m 0,2 C 0,3 C 9,7 km/h (2 Bft) 95,61 %
09.12.2015 06:10 0,3 C 99 % 1033,7 hPa 0,0 l/m 4,7 km/h (1 Bft) S-SW 200 0 min 0,000 mm 0,0 UV-I 0 W/m 0,2 C 0,3 C 8,0 km/h (2 Bft) 97,58 %
09.12.2015 06:15 0,3 C 99 % 1033,7 hPa 0,0 l/m 4,7 km/h (1 Bft) S 180 0 min 0,000 mm 0,0 UV-I 0 W/m 0,2 C 0,3 C 9,7 km/h (2 Bft) 93,86 %
09.12.2015 06:20 0,4 C 99 % 1033,7 hPa 0,0 l/m 3,3 km/h (1 Bft) S-SW 199 0 min 0,000 mm 0,0 UV-I 0 W/m 0,3 C 0,4 C 6,4 km/h (2 Bft) 98,39 %
09.12.2015 06:25 0,4 C 99 % 1033,7 hPa 0,0 l/m 2,4 km/h (1 Bft) S-SW 198 0 min 0,000 mm 0,0 UV-I 0 W/m 0,3 C 0,4 C 4,8 km/h (1 Bft) 96,52 %
09.12.2015 06:30 0,4 C 99 % 1033,8 hPa 0,0 l/m 2,1 km/h (1 Bft) S-SW 198 0 min 0,000 mm 0,0 UV-I 0 W/m 0,3 C 0,4 C 4,8 km/h (1 Bft) 98,25 %
09.12.2015 06:35 0,4 C 99 % 1033,8 hPa 0,0 l/m 1,3 km/h (1 Bft) S-SW 198 0 min 0,000 mm 0,0 UV-I 0 W/m 0,3 C 0,4 C 3,2 km/h (1 Bft) 99,13 %
09.12.2015 06:40 0,4 C 99 % 1033,7 hPa 0,0 l/m 1,7 km/h (1 Bft) S-SW 198 0 min 0,000 mm 0,0 UV-I 0 W/m 0,3 C 0,4 C 3,2 km/h (1 Bft) 98,26 %
09.12.2015 06:45 0,4 C 99 % 1033,6 hPa 0,0 l/m 2,2 km/h (1 Bft) S-SW 195 0 min 0,000 mm 0,0 UV-I 0 W/m 0,3 C 0,4 C 6,4 km/h (2 Bft) 100,00 %
09.12.2015 06:50 0,4 C 99 % 1033,7 hPa 0,0 l/m 2,6 km/h (1 Bft) S-SW 210 0 min 0,000 mm 0,0 UV-I 0 W/m 0,3 C 0,4 C 4,8 km/h (1 Bft) 100,00 %
09.12.2015 06:55 0,5 C 99 % 1033,9 hPa 0,0 l/m 4,1 km/h (1 Bft) S-SW 192 0 min 0,000 mm 0,0 UV-I 0 W/m 0,4 C 0,5 C 8,0 km/h (2 Bft) 99,07 %
09.12.2015 07:00 0,5 C 99 % 1033,7 hPa 0,0 l/m 3,5 km/h (1 Bft) S-SW 196 0 min 0,000 mm 0,0 UV-I 0 W/m 0,4 C 0,5 C 8,0 km/h (2 Bft) 100,00 %
09.12.2015 07:05 0,6 C 99 % 1033,7 hPa 0,0 l/m 1,7 km/h (1 Bft) S-SW 196 0 min 0,000 mm 0,0 UV-I 0 W/m 0,5 C 0,6 C 3,2 km/h (1 Bft) 100,00 %
09.12.2015 07:10 0,5 C 99 % 1033,8 hPa 0,0 l/m 3,5 km/h (1 Bft) SW 222 0 min 0,000 mm 0,0 UV-I 0 W/m 0,4 C 0,5 C 6,4 km/h (2 Bft) 98,29 %
09.12.2015 07:15 0,5 C 99 % 1033,7 hPa 0,0 l/m 2,5 km/h (1 Bft) S 180 0 min 0,000 mm 0,0 UV-I 0 W/m 0,4 C 0,5 C 4,8 km/h (1 Bft) 100,00 %
09.12.2015 07:20 0,6 C 99 % 1033,7 hPa 0,0 l/m 3,5 km/h (1 Bft) S-SW 197 0 min 0,000 mm 0,0 UV-I 0 W/m 0,5 C 0,6 C 6,4 km/h (2 Bft) 100,00 %
09.12.2015 07:25 0,5 C 99 % 1033,6 hPa 0,0 l/m 2,7 km/h (1 Bft) S-SW 197 0 min 0,000 mm 0,0 UV-I 0 W/m 0,4 C 0,5 C 4,8 km/h (1 Bft) 100,00 %
09.12.2015 07:30 0,6 C 99 % 1033,7 hPa 0,0 l/m 1,9 km/h (1 Bft) S-SW 197 0 min 0,000 mm 0,0 UV-I 0 W/m 0,5 C 0,6 C 3,2 km/h (1 Bft) 96,58 %
09.12.2015 07:35 0,5 C 99 % 1033,6 hPa 0,0 l/m 1,4 km/h (1 Bft) S-SW 197 0 min 0,000 mm 0,0 UV-I 0 W/m 0,4 C 0,5 C 3,2 km/h (1 Bft) 100,00 %
09.12.2015 07:40 0,5 C 99 % 1033,8 hPa 0,0 l/m 1,7 km/h (1 Bft) S-SW 197 0 min 0,000 mm 0,0 UV-I 0 W/m 0,4 C 0,5 C 3,2 km/h (1 Bft) 100,00 %
09.12.2015 07:45 0,6 C 99 % 1033,7 hPa 0,0 l/m 2,7 km/h (1 Bft) S 181 0 min 0,000 mm 0,0 UV-I 0 W/m 0,5 C 0,6 C 6,4 km/h (2 Bft) 100,00 %
09.12.2015 07:50 0,6 C 99 % 1033,7 hPa 0,0 l/m 3,1 km/h (1 Bft) S-SW 202 0 min 0,000 mm 0,0 UV-I 1 W/m 0,5 C 0,6 C 6,4 km/h (2 Bft) 100,00 %
09.12.2015 07:55 0,6 C 99 % 1033,7 hPa 0,0 l/m 4,6 km/h (1 Bft) S-SW 195 0 min 0,000 mm 0,0 UV-I 5 W/m 0,5 C 0,6 C 8,0 km/h (2 Bft) 100,00 %
09.12.2015 08:00 0,6 C 99 % 1033,7 hPa 0,0 l/m 3,9 km/h (1 Bft) S 188 0 min 0,000 mm 0,0 UV-I 7 W/m 0,5 C 0,6 C 6,4 km/h (2 Bft) 96,58 %
09.12.2015 08:05 0,6 C 99 % 1033,7 hPa 0,0 l/m 5,7 km/h (1 Bft) S-SW 194 0 min 0,000 mm 0,0 UV-I 9 W/m 0,5 C 0,6 C 6,4 km/h (2 Bft) 95,83 %
09.12.2015 08:15 0,5 C 99 % 1033,6 hPa 0,0 l/m 5,5 km/h (1 Bft) S-SW 194 0 min 0,000 mm 0,0 UV-I 12 W/m 0,4 C 0,5 C 8,0 km/h (2 Bft) 97,56 %
09.12.2015 08:20 0,5 C 99 % 1033,6 hPa 0,0 l/m 4,2 km/h (1 Bft) S-SW 198 0 min 0,000 mm 0,0 UV-I 12 W/m 0,4 C 0,5 C 6,4 km/h (2 Bft) 97,32 %
09.12.2015 08:25 0,6 C 99 % 1033,5 hPa 0,0 l/m 3,0 km/h (1 Bft) S 176 0 min 0,000 mm 0,0 UV-I 14 W/m 0,5 C 0,6 C 6,4 km/h (2 Bft) 97,39 %
09.12.2015 08:30 0,6 C 99 % 1033,6 hPa 0,0 l/m 3,7 km/h (1 Bft) S 184 0 min 0,000 mm 0,0 UV-I 21 W/m 0,5 C 0,6 C 6,4 km/h (2 Bft) 95,12 %
09.12.2015 08:35 0,7 C 99 % 1033,6 hPa 0,0 l/m 3,3 km/h (1 Bft) S 178 0 min 0,000 mm 0,0 UV-I 25 W/m 0,6 C 0,7 C 4,8 km/h (1 Bft) 99,15 %
09.12.2015 08:40 0,7 C 99 % 1033,5 hPa 0,0 l/m 2,8 km/h (1 Bft) S 186 0 min 0,000 mm 0,0 UV-I 30 W/m 0,6 C 0,7 C 4,8 km/h (1 Bft) 100,00 %
09.12.2015 08:45 0,8 C 99 % 1033,5 hPa 0,0 l/m 3,5 km/h (1 Bft) S 188 0 min 0,000 mm 0,0 UV-I 34 W/m 0,7 C 0,8 C 6,4 km/h (2 Bft) 100,00 %
09.12.2015 08:50 0,8 C 99 % 1033,6 hPa 0,0 l/m 3,0 km/h (1 Bft) S-SW 202 0 min 0,000 mm 0,0 UV-I 41 W/m 0,7 C 0,8 C 6,4 km/h (2 Bft) 98,46 %
09.12.2015 08:55 0,9 C 99 % 1033,6 hPa 0,0 l/m 3,8 km/h (1 Bft) S 182 0 min 0,000 mm 0,0 UV-I 49 W/m 0,8 C 0,9 C 6,4 km/h (2 Bft) 99,07 %
09.12.2015 09:00 0,9 C 99 % 1033,6 hPa 0,0 l/m 3,5 km/h (1 Bft) S 183 0 min 0,000 mm 0,0 UV-I 53 W/m 0,8 C 0,9 C 6,4 km/h (2 Bft) 100,00 %
09.12.2015 09:05 1,1 C 99 % 1033,7 hPa 0,0 l/m 1,9 km/h (1 Bft) S 183 0 min 0,000 mm 0,0 UV-I 57 W/m 1,0 C 1,1 C 4,8 km/h (1 Bft) 99,06 %
09.12.2015 09:10 1,2 C 99 % 1033,7 hPa 0,0 l/m 0,0 km/h (0 Bft) S 183 0 min 0,000 mm 0,0 UV-I 59 W/m 1,1 C 1,2 C 1,6 km/h (1 Bft) 97,62 %
09.12.2015 09:15 1,2 C 99 % 1033,7 hPa 0,0 l/m 0,6 km/h (0 Bft) S 183 0 min 0,000 mm 0,0 UV-I 60 W/m 1,1 C 1,2 C 1,6 km/h (1 Bft) 99,15 %
09.12.2015 09:20 1,2 C 99 % 1033,8 hPa 0,0 l/m 2,1 km/h (1 Bft) S-SW 192 0 min 0,000 mm 0,0 UV-I 62 W/m 1,1 C 1,2 C 4,8 km/h (1 Bft) 99,12 %
09.12.2015 09:25 1,3 C 99 % 1033,8 hPa 0,0 l/m 2,6 km/h (1 Bft) W 267 0 min 0,000 mm 0,0 UV-I 72 W/m 1,2 C 1,3 C 6,4 km/h (2 Bft) 100,00 %
09.12.2015 09:30 1,3 C 99 % 1033,9 hPa 0,0 l/m 0,6 km/h (0 Bft) W 271 0 min 0,000 mm 0,0 UV-I 79 W/m 1,2 C 1,3 C 3,2 km/h (1 Bft) 99,13 %
09.12.2015 09:35 1,3 C 99 % 1034,0 hPa 0,0 l/m 2,2 km/h (1 Bft) W-NW 286 0 min 0,000 mm 0,0 UV-I 50 W/m 1,2 C 1,3 C 4,8 km/h (1 Bft) 98,29 %
09.12.2015 09:40 1,3 C 99 % 1034,0 hPa 0,0 l/m 0,7 km/h (0 Bft) W-NW 286 0 min 0,000 mm 0,0 UV-I 45 W/m 1,2 C 1,3 C 3,2 km/h (1 Bft) 99,19 %
09.12.2015 09:45 1,3 C 99 % 1034,0 hPa 0,0 l/m 0,8 km/h (0 Bft) W-NW 288 0 min 0,000 mm 0,0 UV-I 63 W/m 1,2 C 1,3 C 3,2 km/h (1 Bft) 100,00 %
09.12.2015 09:50 1,4 C 99 % 1034,1 hPa 0,0 l/m 1,1 km/h (1 Bft) W-NW 288 0 min 0,000 mm 0,0 UV-I 64 W/m 1,3 C 1,4 C 3,2 km/h (1 Bft) 99,10 %
09.12.2015 09:55 1,4 C 98 % 1034,0 hPa 0,0 l/m 0,1 km/h (0 Bft) W-NW 288 0 min 0,000 mm 0,0 UV-I 63 W/m 1,1 C 1,4 C 1,6 km/h (1 Bft) 100,00 %
09.12.2015 10:00 1,4 C 98 % 1034,1 hPa 0,0 l/m 1,4 km/h (1 Bft) W-NW 289 0 min 0,025 mm 0,0 UV-I 64 W/m 1,1 C 1,4 C 4,8 km/h (1 Bft) 98,00 %
09.12.2015 10:05 1,4 C 98 % 1034,2 hPa 0,0 l/m 0,2 km/h (0 Bft) W-NW 289 0 min 0,000 mm 0,0 UV-I 64 W/m 1,1 C 1,4 C 1,6 km/h (1 Bft) 96,97 %
09.12.2015 10:10 1,4 C 98 % 1034,1 hPa 0,0 l/m 0,9 km/h (0 Bft) W-NW 294 0 min 0,000 mm 0,0 UV-I 65 W/m 1,1 C 1,4 C 3,2 km/h (1 Bft) 98,17 %
09.12.2015 10:15 1,4 C 98 % 1034,2 hPa 0,0 l/m 1,5 km/h (1 Bft) W-NW 294 0 min 0,000 mm 0,0 UV-I 80 W/m 1,1 C 1,4 C 3,2 km/h (1 Bft) 95,93 %
09.12.2015 10:20 1,4 C 98 % 1034,3 hPa 0,0 l/m 2,5 km/h (1 Bft) W-NW 292 0 min 0,000 mm 0,0 UV-I 94 W/m 1,1 C 1,4 C 4,8 km/h (1 Bft) 96,77 %
09.12.2015 10:25 1,6 C 98 % 1034,3 hPa 0,0 l/m 2,4 km/h (1 Bft) W-NW 291 0 min 0,000 mm 0,0 UV-I 94 W/m 1,3 C 1,6 C 3,2 km/h (1 Bft) 95,65 %
09.12.2015 10:30 1,7 C 98 % 1034,2 hPa 0,0 l/m 3,7 km/h (1 Bft) W-SW 249 0 min 0,000 mm 0,0 UV-I 95 W/m 1,4 C 1,7 C 6,4 km/h (2 Bft) 99,12 %
09.12.2015 10:35 1,7 C 98 % 1034,1 hPa 0,0 l/m 3,6 km/h (1 Bft) W 261 0 min 0,000 mm 0,0 UV-I 76 W/m 1,4 C 1,7 C 6,4 km/h (2 Bft) 98,21 %
09.12.2015 10:40 1,7 C 97 % 1034,1 hPa 0,0 l/m 2,5 km/h (1 Bft) W 260 0 min 0,000 mm 0,0 UV-I 59 W/m 1,3 C 1,7 C 4,8 km/h (1 Bft) 100,00 %
09.12.2015 10:45 1,8 C 97 % 1034,0 hPa 0,0 l/m 3,2 km/h (1 Bft) S-SW 198 0 min 0,000 mm 0,0 UV-I 56 W/m 1,4 C 1,8 C 6,4 km/h (2 Bft) 100,00 %
09.12.2015 10:50 1,8 C 97 % 1033,9 hPa 0,0 l/m 2,4 km/h (1 Bft) S-SW 203 0 min 0,000 mm 0,0 UV-I 63 W/m 1,4 C 1,8 C 4,8 km/h (1 Bft) 99,08 %
09.12.2015 10:55 1,8 C 97 % 1033,9 hPa 0,0 l/m 1,8 km/h (1 Bft) S-SW 198 0 min 0,000 mm 0,0 UV-I 67 W/m 1,4 C 1,8 C 4,8 km/h (1 Bft) 99,03 %
09.12.2015 11:00 1,9 C 97 % 1033,9 hPa 0,0 l/m 2,6 km/h (1 Bft) S 190 0 min 0,026 mm 0,0 UV-I 63 W/m 1,5 C 1,9 C 6,4 km/h (2 Bft) 100,00 %
09.12.2015 11:05 2,0 C 97 % 1033,9 hPa 0,0 l/m 4,4 km/h (1 Bft) S 190 0 min 0,000 mm 0,0 UV-I 59 W/m 1,6 C 2,0 C 6,4 km/h (2 Bft) 99,19 %
09.12.2015 11:10 2,1 C 97 % 1033,9 hPa 0,0 l/m 4,6 km/h (1 Bft) SW 220 0 min 0,000 mm 0,0 UV-I 56 W/m 1,7 C 2,1 C 8,0 km/h (2 Bft) 100,00 %
09.12.2015 11:15 2,2 C 97 % 1033,8 hPa 0,0 l/m 4,2 km/h (1 Bft) S-SW 203 0 min 0,000 mm 0,0 UV-I 54 W/m 1,8 C 2,2 C 6,4 km/h (2 Bft) 99,15 %
09.12.2015 11:20 2,3 C 97 % 1033,9 hPa 0,0 l/m 3,5 km/h (1 Bft) SW 230 0 min 0,000 mm 0,0 UV-I 57 W/m 1,9 C 2,3 C 6,4 km/h (2 Bft) 99,06 %
09.12.2015 11:25 2,4 C 97 % 1034,0 hPa 0,0 l/m 4,4 km/h (1 Bft) SW 234 0 min 0,000 mm 0,0 UV-I 54 W/m 2,0 C 2,4 C 6,4 km/h (2 Bft) 98,41 %
09.12.2015 11:30 2,4 C 96 % 1033,9 hPa 0,0 l/m 4,1 km/h (1 Bft) W 267 0 min 0,000 mm 0,0 UV-I 58 W/m 1,8 C 2,4 C 6,4 km/h (2 Bft) 99,17 %
09.12.2015 11:35 2,4 C 96 % 1033,9 hPa 0,0 l/m 4,5 km/h (1 Bft) S-SW 201 0 min 0,000 mm 0,0 UV-I 58 W/m 1,8 C 2,4 C 8,0 km/h (2 Bft) 97,22 %
09.12.2015 11:40 2,5 C 96 % 1033,9 hPa 0,0 l/m 4,5 km/h (1 Bft) W-SW 248 0 min 0,000 mm 0,0 UV-I 64 W/m 1,9 C 2,5 C 6,4 km/h (2 Bft) 99,17 %
09.12.2015 11:45 2,6 C 96 % 1033,8 hPa 0,0 l/m 3,8 km/h (1 Bft) S-SW 194 0 min 0,000 mm 0,0 UV-I 79 W/m 2,0 C 2,6 C 8,0 km/h (2 Bft) 100,00 %
09.12.2015 11:50 2,6 C 96 % 1034,0 hPa 0,0 l/m 6,4 km/h (2 Bft) SW 225 0 min 0,000 mm 0,0 UV-I 79 W/m 2,0 C 2,6 C 11,3 km/h (2 Bft) 98,37 %
09.12.2015 11:55 2,8 C 96 % 1033,8 hPa 0,0 l/m 4,9 km/h (1 Bft) S-SW 199 0 min 0,000 mm 0,0 UV-I 81 W/m 2,2 C 2,8 C 8,0 km/h (2 Bft) 99,19 %
09.12.2015 12:00 2,9 C 96 % 1033,8 hPa 0,0 l/m 5,0 km/h (1 Bft) W-SW 247 0 min 0,025 mm 0,0 UV-I 97 W/m 2,3 C 2,9 C 11,3 km/h (2 Bft) 95,00 %
09.12.2015 12:05 3,1 C 96 % 1033,9 hPa 0,0 l/m 7,8 km/h (2 Bft) W-SW 255 0 min 0,000 mm 0,0 UV-I 108 W/m 2,5 C 1,8 C 14,5 km/h (3 Bft) 95,76 %
09.12.2015 12:10 3,1 C 96 % 1033,9 hPa 0,0 l/m 7,6 km/h (2 Bft) W-SW 248 0 min 0,000 mm 0,0 UV-I 73 W/m 2,5 C 2,0 C 12,9 km/h (3 Bft) 97,46 %
09.12.2015 12:15 3,1 C 95 % 1033,8 hPa 0,0 l/m 4,4 km/h (1 Bft) SW 233 0 min 0,000 mm 0,0 UV-I 74 W/m 2,4 C 3,1 C 6,4 km/h (2 Bft) 98,25 %
09.12.2015 12:20 3,2 C 95 % 1033,8 hPa 0,0 l/m 6,1 km/h (2 Bft) SW 218 0 min 0,000 mm 0,0 UV-I 74 W/m 2,5 C 3,2 C 11,3 km/h (2 Bft) 96,61 %
09.12.2015 12:25 3,2 C 95 % 1033,8 hPa 0,0 l/m 5,8 km/h (2 Bft) SW 220 0 min 0,000 mm 0,0 UV-I 46 W/m 2,5 C 3,2 C 9,7 km/h (2 Bft) 97,39 %
09.12.2015 12:30 3,2 C 96 % 1033,8 hPa 0,0 l/m 5,7 km/h (1 Bft) SW 236 0 min 0,000 mm 0,0 UV-I 54 W/m 2,6 C 3,2 C 9,7 km/h (2 Bft) 97,37 %
09.12.2015 12:35 3,2 C 96 % 1033,8 hPa 0,0 l/m 6,2 km/h (2 Bft) W-SW 257 0 min 0,000 mm 0,0 UV-I 50 W/m 2,6 C 3,2 C 11,3 km/h (2 Bft) 99,15 %
09.12.2015 12:40 3,2 C 96 % 1033,9 hPa 0,0 l/m 5,8 km/h (2 Bft) SW 230 0 min 0,000 mm 0,0 UV-I 47 W/m 2,6 C 3,2 C 9,7 km/h (2 Bft) 98,21 %
09.12.2015 12:45 3,3 C 96 % 1034,0 hPa 0,0 l/m 6,1 km/h (2 Bft) S-SW 208 0 min 0,000 mm 0,0 UV-I 48 W/m 2,7 C 3,3 C 11,3 km/h (2 Bft) 100,00 %
09.12.2015 12:50 3,2 C 96 % 1034,0 hPa 0,0 l/m 10,6 km/h (2 Bft) W-SW 242 0 min 0,000 mm 0,0 UV-I 48 W/m 2,6 C -0,4 C 17,7 km/h (3 Bft) 98,17 %
09.12.2015 12:55 3,2 C 96 % 1034,0 hPa 0,0 l/m 7,4 km/h (2 Bft) S-SW 213 0 min 0,000 mm 0,0 UV-I 41 W/m 2,6 C 2,3 C 12,9 km/h (3 Bft) 98,41 %
09.12.2015 13:00 3,2 C 96 % 1034,0 hPa 0,0 l/m 5,9 km/h (2 Bft) W-SW 242 0 min 0,026 mm 0,0 UV-I 41 W/m 2,6 C 3,2 C 11,3 km/h (2 Bft) 100,00 %
09.12.2015 13:05 3,2 C 96 % 1034,1 hPa 0,0 l/m 7,8 km/h (2 Bft) W-SW 246 0 min 0,000 mm 0,0 UV-I 47 W/m 2,6 C 1,9 C 14,5 km/h (3 Bft) 98,17 %
09.12.2015 13:10 3,2 C 96 % 1034,0 hPa 0,0 l/m 7,7 km/h (2 Bft) S 186 0 min 0,000 mm 0,0 UV-I 51 W/m 2,6 C 2,0 C 14,5 km/h (3 Bft) 99,17 %
09.12.2015 13:15 3,2 C 96 % 1034,1 hPa 0,0 l/m 7,2 km/h (2 Bft) W-SW 237 0 min 0,000 mm 0,0 UV-I 52 W/m 2,6 C 2,4 C 14,5 km/h (3 Bft) 100,00 %
09.12.2015 13:20 3,3 C 96 % 1034,2 hPa 0,0 l/m 8,8 km/h (2 Bft) W-SW 254 0 min 0,000 mm 0,0 UV-I 42 W/m 2,7 C 1,1 C 14,5 km/h (3 Bft) 98,35 %
09.12.2015 13:25 3,3 C 95 % 1034,1 hPa 0,0 l/m 6,0 km/h (2 Bft) SW 234 0 min 0,000 mm 0,0 UV-I 50 W/m 2,6 C 3,3 C 11,3 km/h (2 Bft) 100,00 %
09.12.2015 13:30 3,3 C 96 % 1034,1 hPa 0,0 l/m 6,9 km/h (2 Bft) W-SW 242 0 min 0,000 mm 0,0 UV-I 46 W/m 2,7 C 2,8 C 11,3 km/h (2 Bft) 97,46 %
09.12.2015 13:35 3,4 C 96 % 1034,1 hPa 0,0 l/m 4,7 km/h (1 Bft) W 264 0 min 0,000 mm 0,0 UV-I 44 W/m 2,8 C 3,4 C 8,0 km/h (2 Bft) 99,17 %
09.12.2015 13:40 3,5 C 96 % 1034,1 hPa 0,0 l/m 5,1 km/h (1 Bft) W 259 0 min 0,000 mm 0,0 UV-I 39 W/m 2,9 C 3,5 C 9,7 km/h (2 Bft) 99,11 %
09.12.2015 13:45 3,6 C 96 % 1034,2 hPa 0,0 l/m 7,3 km/h (2 Bft) W-SW 256 0 min 0,000 mm 0,0 UV-I 34 W/m 3,0 C 2,8 C 16,1 km/h (3 Bft) 99,19 %
09.12.2015 13:50 3,6 C 96 % 1034,1 hPa 0,0 l/m 7,4 km/h (2 Bft) W-SW 257 0 min 0,000 mm 0,0 UV-I 32 W/m 3,0 C 2,7 C 12,9 km/h (3 Bft) 99,10 %
09.12.2015 13:55 3,6 C 95 % 1034,2 hPa 0,0 l/m 5,6 km/h (1 Bft) SW 230 0 min 0,000 mm 0,0 UV-I 28 W/m 2,9 C 3,6 C 11,3 km/h (2 Bft) 99,17 %
09.12.2015 14:00 3,7 C 95 % 1034,3 hPa 0,0 l/m 6,4 km/h (2 Bft) W-SW 250 0 min 0,025 mm 0,0 UV-I 23 W/m 3,0 C 3,7 C 11,3 km/h (2 Bft) 94,85 %
09.12.2015 14:05 3,7 C 96 % 1034,4 hPa 0,0 l/m 6,8 km/h (2 Bft) W-SW 257 0 min 0,000 mm 0,0 UV-I 18 W/m 3,1 C 3,3 C 9,7 km/h (2 Bft) 95,65 %
09.12.2015 14:10 3,7 C 96 % 1034,5 hPa 0,0 l/m 6,4 km/h (2 Bft) W 259 0 min 0,000 mm 0,0 UV-I 18 W/m 3,1 C 3,7 C 12,9 km/h (3 Bft) 95,76 %
09.12.2015 14:15 3,8 C 96 % 1034,5 hPa 0,0 l/m 8,3 km/h (2 Bft) W 275 0 min 0,000 mm 0,0 UV-I 18 W/m 3,2 C 2,1 C 14,5 km/h (3 Bft) 98,29 %
09.12.2015 14:20 3,9 C 97 % 1034,5 hPa 0,0 l/m 9,2 km/h (2 Bft) W-SW 254 0 min 0,000 mm 0,0 UV-I 17 W/m 3,5 C 1,5 C 16,1 km/h (3 Bft) 94,17 %
09.12.2015 14:25 4,1 C 97 % 1034,6 hPa 0,0 l/m 9,2 km/h (2 Bft) W 271 0 min 0,000 mm 0,0 UV-I 13 W/m 3,7 C 1,7 C 16,1 km/h (3 Bft) 98,46 %
09.12.2015 14:30 4,3 C 97 % 1034,6 hPa 0,0 l/m 10,6 km/h (2 Bft) W-SW 257 0 min 0,000 mm 0,0 UV-I 13 W/m 3,9 C 0,9 C 19,3 km/h (3 Bft) 98,33 %
09.12.2015 14:35 4,6 C 97 % 1034,7 hPa 0,0 l/m 12,1 km/h (2 Bft) W 263 0 min 0,000 mm 0,0 UV-I 12 W/m 4,2 C 0,2 C 20,9 km/h (4 Bft) 99,08 %
09.12.2015 14:40 4,7 C 97 % 1034,8 hPa 0,0 l/m 16,0 km/h (3 Bft) W-SW 247 0 min 0,000 mm 0,0 UV-I 12 W/m 4,3 C -1,8 C 27,4 km/h (4 Bft) 100,00 %
09.12.2015 14:45 4,8 C 97 % 1034,9 hPa 0,0 l/m 14,9 km/h (3 Bft) W-SW 250 0 min 0,000 mm 0,0 UV-I 13 W/m 4,4 C -1,1 C 25,7 km/h (4 Bft) 97,67 %
09.12.2015 14:50 4,8 C 96 % 1035,1 hPa 0,0 l/m 15,2 km/h (3 Bft) W-SW 247 0 min 0,000 mm 0,0 UV-I 16 W/m 4,2 C -1,3 C 24,1 km/h (4 Bft) 98,11 %
09.12.2015 14:55 4,9 C 96 % 1035,2 hPa 0,0 l/m 17,5 km/h (3 Bft) W-SW 257 0 min 0,000 mm 0,0 UV-I 17 W/m 4,3 C -2,2 C 30,6 km/h (5 Bft) 100,00 %
09.12.2015 15:00 4,9 C 95 % 1035,3 hPa 0,0 l/m 16,3 km/h (3 Bft) W 262 0 min 0,000 mm 0,0 UV-I 15 W/m 4,2 C -1,7 C 22,5 km/h (4 Bft) 99,13 %
09.12.2015 15:05 4,9 C 95 % 1035,4 hPa 0,0 l/m 15,5 km/h (3 Bft) W 265 0 min 0,000 mm 0,0 UV-I 15 W/m 4,2 C -1,3 C 27,4 km/h (4 Bft) 97,52 %
09.12.2015 15:10 5,0 C 95 % 1035,6 hPa 0,0 l/m 14,4 km/h (3 Bft) W-SW 255 0 min 0,000 mm 0,0 UV-I 14 W/m 4,3 C -0,6 C 24,1 km/h (4 Bft) 98,20 %
09.12.2015 15:15 5,1 C 94 % 1035,6 hPa 0,0 l/m 17,3 km/h (3 Bft) W-SW 255 0 min 0,000 mm 0,0 UV-I 14 W/m 4,2 C -1,9 C 25,7 km/h (4 Bft) 100,00 %
09.12.2015 15:20 5,1 C 94 % 1035,7 hPa 0,0 l/m 19,0 km/h (3 Bft) W 264 0 min 0,000 mm 0,0 UV-I 14 W/m 4,2 C -2,6 C 27,4 km/h (4 Bft) 99,08 %
09.12.2015 15:25 5,2 C 93 % 1035,7 hPa 0,0 l/m 24,6 km/h (4 Bft) W-SW 242 0 min 0,000 mm 0,0 UV-I 14 W/m 4,2 C -4,5 C 41,8 km/h (6 Bft) 99,17 %
09.12.2015 15:30 5,2 C 92 % 1035,8 hPa 0,0 l/m 22,5 km/h (4 Bft) W 273 0 min 0,000 mm 0,0 UV-I 14 W/m 4,0 C -3,8 C 33,8 km/h (5 Bft) 100,00 %
09.12.2015 15:35 5,1 C 93 % 1035,9 hPa 0,0 l/m 14,8 km/h (3 Bft) W-SW 238 0 min 0,000 mm 0,0 UV-I 11 W/m 4,1 C -0,7 C 25,7 km/h (4 Bft) 100,00 %
09.12.2015 15:40 5,1 C 93 % 1035,9 hPa 0,0 l/m 18,4 km/h (3 Bft) W-SW 245 0 min 0,000 mm 0,0 UV-I 9 W/m 4,1 C -2,4 C 27,4 km/h (4 Bft) 96,52 %
09.12.2015 15:45 5,0 C 93 % 1036,0 hPa 0,0 l/m 16,7 km/h (3 Bft) W 267 0 min 0,000 mm 0,0 UV-I 6 W/m 4,0 C -1,8 C 27,4 km/h (4 Bft) 99,11 %
09.12.2015 15:50 4,9 C 93 % 1036,1 hPa 0,0 l/m 14,8 km/h (3 Bft) W-SW 244 0 min 0,000 mm 0,0 UV-I 5 W/m 3,9 C -0,9 C 29,0 km/h (5 Bft) 98,33 %
09.12.2015 15:55 4,8 C 93 % 1036,1 hPa 0,2 l/m 15,4 km/h (3 Bft) W 264 0 min 0,000 mm 0,0 UV-I 0 W/m 3,8 C -1,4 C 29,0 km/h (5 Bft) 100,00 %
09.12.2015 16:00 4,8 C 93 % 1036,4 hPa 0,2 l/m 15,9 km/h (3 Bft) W-SW 256 0 min 0,025 mm 0,0 UV-I 0 W/m 3,8 C -1,6 C 25,7 km/h (4 Bft) 97,64 %
09.12.2015 16:05 4,7 C 94 % 1036,3 hPa 0,0 l/m 16,2 km/h (3 Bft) W 259 0 min 0,000 mm 0,0 UV-I 0 W/m 3,8 C -1,9 C 27,4 km/h (4 Bft) 97,30 %
09.12.2015 16:10 4,7 C 94 % 1036,4 hPa 0,2 l/m 13,1 km/h (3 Bft) W 275 0 min 0,000 mm 0,0 UV-I 0 W/m 3,8 C -0,2 C 25,7 km/h (4 Bft) 96,77 %
09.12.2015 16:15 4,6 C 94 % 1036,4 hPa 0,2 l/m 14,8 km/h (3 Bft) W 272 0 min 0,000 mm 0,0 UV-I 0 W/m 3,7 C -1,3 C 22,5 km/h (4 Bft) 97,32 %
09.12.2015 16:20 4,5 C 95 % 1036,5 hPa 0,0 l/m 14,0 km/h (3 Bft) W 275 0 min 0,000 mm 0,0 UV-I 0 W/m 3,8 C -1,0 C 22,5 km/h (4 Bft) 95,28 %
09.12.2015 16:25 4,4 C 95 % 1036,6 hPa 0,2 l/m 13,4 km/h (3 Bft) W-SW 248 0 min 0,000 mm 0,0 UV-I 0 W/m 3,7 C -0,8 C 20,9 km/h (4 Bft) 96,77 %
09.12.2015 16:30 4,4 C 95 % 1036,7 hPa 0,2 l/m 15,2 km/h (3 Bft) W-SW 257 0 min 0,000 mm 0,0 UV-I 0 W/m 3,7 C -1,8 C 22,5 km/h (4 Bft) 96,67 %
09.12.2015 16:35 4,3 C 95 % 1036,8 hPa 0,0 l/m 15,7 km/h (3 Bft) W 268 0 min 0,000 mm 0,0 UV-I 0 W/m 3,6 C -2,1 C 25,7 km/h (4 Bft) 97,39 %
09.12.2015 16:40 4,2 C 95 % 1036,9 hPa 0,2 l/m 17,0 km/h (3 Bft) W-SW 257 0 min 0,000 mm 0,0 UV-I 0 W/m 3,5 C -2,9 C 25,7 km/h (4 Bft) 98,31 %
09.12.2015 16:45 4,2 C 94 % 1037,0 hPa 0,2 l/m 18,5 km/h (3 Bft) W-SW 240 0 min 0,000 mm 0,0 UV-I 0 W/m 3,3 C -3,6 C 27,4 km/h (4 Bft) 98,37 %
09.12.2015 16:50 4,1 C 94 % 1037,1 hPa 0,2 l/m 17,4 km/h (3 Bft) W 266 0 min 0,000 mm 0,0 UV-I 0 W/m 3,2 C -3,2 C 29,0 km/h (5 Bft) 99,08 %
09.12.2015 16:55 3,9 C 94 % 1037,1 hPa 0,2 l/m 16,5 km/h (3 Bft) W 259 0 min 0,000 mm 0,0 UV-I 0 W/m 3,0 C -3,0 C 29,0 km/h (5 Bft) 100,00 %
09.12.2015 17:00 3,8 C 94 % 1037,3 hPa 0,2 l/m 17,4 km/h (3 Bft) SW 228 0 min 0,000 mm 0,0 UV-I 0 W/m 2,9 C -3,6 C 29,0 km/h (5 Bft) 100,00 %
09.12.2015 17:05 3,7 C 94 % 1037,3 hPa 0,2 l/m 18,9 km/h (3 Bft) SW 225 0 min 0,000 mm 0,0 UV-I 0 W/m 2,8 C -4,4 C 29,0 km/h (5 Bft) 100,00 %
09.12.2015 17:10 3,6 C 95 % 1037,4 hPa 0,0 l/m 17,5 km/h (3 Bft) W-SW 252 0 min 0,000 mm 0,0 UV-I 0 W/m 2,9 C -3,9 C 24,1 km/h (4 Bft) 100,00 %
09.12.2015 17:15 3,5 C 95 % 1037,5 hPa 0,2 l/m 16,8 km/h (3 Bft) S-SW 205 0 min 0,000 mm 0,0 UV-I 0 W/m 2,8 C -3,7 C 25,7 km/h (4 Bft) 99,19 %
09.12.2015 17:20 3,4 C 95 % 1037,5 hPa 0,2 l/m 17,0 km/h (3 Bft) W-SW 238 0 min 0,000 mm 0,0 UV-I 0 W/m 2,7 C -3,9 C 29,0 km/h (5 Bft) 99,08 %
09.12.2015 17:25 3,5 C 95 % 1037,6 hPa 0,0 l/m 17,5 km/h (3 Bft) W-SW 251 0 min 0,000 mm 0,0 UV-I 0 W/m 2,8 C -4,0 C 30,6 km/h (5 Bft) 99,19 %
09.12.2015 17:30 3,5 C 96 % 1037,6 hPa 0,4 l/m 16,4 km/h (3 Bft) W-SW 257 0 min 0,000 mm 0,0 UV-I 0 W/m 2,9 C -3,5 C 24,1 km/h (4 Bft) 99,00 %
09.12.2015 17:35 3,5 C 96 % 1037,7 hPa 0,2 l/m 15,5 km/h (3 Bft) W-SW 243 0 min 0,000 mm 0,0 UV-I 0 W/m 2,9 C -3,0 C 22,5 km/h (4 Bft) 99,19 %
09.12.2015 17:40 3,5 C 96 % 1037,8 hPa 0,2 l/m 15,0 km/h (3 Bft) W 265 0 min 0,000 mm 0,0 UV-I 0 W/m 2,9 C -2,7 C 24,1 km/h (4 Bft) 100,00 %
09.12.2015 17:45 3,6 C 96 % 1037,8 hPa 0,0 l/m 15,3 km/h (3 Bft) W-SW 253 0 min 0,000 mm 0,0 UV-I 0 W/m 3,0 C -2,8 C 24,1 km/h (4 Bft) 98,39 %
09.12.2015 17:50 3,6 C 96 % 1037,9 hPa 0,4 l/m 15,4 km/h (3 Bft) W-SW 254 0 min 0,000 mm 0,0 UV-I 0 W/m 3,0 C -2,8 C 24,1 km/h (4 Bft) 99,12 %
09.12.2015 17:55 3,7 C 96 % 1038,0 hPa 0,2 l/m 15,3 km/h (3 Bft) W 259 0 min 0,000 mm 0,0 UV-I 0 W/m 3,1 C -2,7 C 29,0 km/h (5 Bft) 98,21 %
09.12.2015 18:00 3,7 C 96 % 1038,1 hPa 0,2 l/m 14,0 km/h (3 Bft) W-SW 254 0 min 0,000 mm 0,0 UV-I 0 W/m 3,1 C -1,9 C 22,5 km/h (4 Bft) 99,13 %
09.12.2015 18:05 3,8 C 96 % 1038,2 hPa 0,2 l/m 13,9 km/h (3 Bft) W 263 0 min 0,000 mm 0,0 UV-I 0 W/m 3,2 C -1,8 C 20,9 km/h (4 Bft) 98,41 %
09.12.2015 18:10 3,8 C 97 % 1038,3 hPa 0,2 l/m 12,3 km/h (3 Bft) W-SW 242 0 min 0,000 mm 0,0 UV-I 0 W/m 3,4 C -0,8 C 17,7 km/h (3 Bft) 97,46 %
09.12.2015 18:15 3,8 C 97 % 1038,3 hPa 0,2 l/m 14,1 km/h (3 Bft) W-SW 255 0 min 0,000 mm 0,0 UV-I 0 W/m 3,4 C -1,9 C 20,9 km/h (4 Bft) 97,25 %
09.12.2015 18:20 3,9 C 97 % 1038,4 hPa 0,2 l/m 11,9 km/h (2 Bft) W 275 0 min 0,000 mm 0,0 UV-I 0 W/m 3,5 C -0,4 C 20,9 km/h (4 Bft) 97,44 %
09.12.2015 18:25 3,9 C 97 % 1038,4 hPa 0,2 l/m 9,9 km/h (2 Bft) W 267 0 min 0,000 mm 0,0 UV-I 0 W/m 3,5 C 0,9 C 17,7 km/h (3 Bft) 96,61 %
09.12.2015 18:30 3,9 C 97 % 1038,4 hPa 0,2 l/m 9,5 km/h (2 Bft) W-SW 245 0 min 0,000 mm 0,0 UV-I 0 W/m 3,5 C 1,2 C 14,5 km/h (3 Bft) 97,56 %
09.12.2015 18:35 3,9 C 97 % 1038,5 hPa 0,2 l/m 10,1 km/h (2 Bft) SW 234 0 min 0,000 mm 0,0 UV-I 0 W/m 3,5 C 0,8 C 17,7 km/h (3 Bft) 97,32 %
09.12.2015 18:40 4,0 C 97 % 1038,5 hPa 0,0 l/m 8,9 km/h (2 Bft) W 266 0 min 0,000 mm 0,0 UV-I 0 W/m 3,6 C 1,8 C 14,5 km/h (3 Bft) 96,52 %
09.12.2015 18:45 4,0 C 97 % 1038,6 hPa 0,2 l/m 11,0 km/h (2 Bft) SW 225 0 min 0,000 mm 0,0 UV-I 0 W/m 3,6 C 0,3 C 17,7 km/h (3 Bft) 96,58 %
09.12.2015 18:50 4,1 C 97 % 1038,6 hPa 0,0 l/m 11,1 km/h (2 Bft) SW 233 0 min 0,000 mm 0,0 UV-I 0 W/m 3,7 C 0,3 C 19,3 km/h (3 Bft) 100,00 %
09.12.2015 18:55 4,1 C 97 % 1038,7 hPa 0,0 l/m 10,1 km/h (2 Bft) SW 230 0 min 0,000 mm 0,0 UV-I 0 W/m 3,7 C 1,0 C 14,5 km/h (3 Bft) 97,64 %
09.12.2015 19:00 4,1 C 97 % 1038,7 hPa 0,0 l/m 9,6 km/h (2 Bft) SW 229 0 min 0,000 mm 0,0 UV-I 0 W/m 3,7 C 1,4 C 16,1 km/h (3 Bft) 98,17 %
09.12.2015 19:05 4,1 C 97 % 1038,8 hPa 0,2 l/m 10,8 km/h (2 Bft) W-SW 243 0 min 0,000 mm 0,0 UV-I 0 W/m 3,7 C 0,5 C 17,7 km/h (3 Bft) 100,00 %
09.12.2015 19:10 4,2 C 97 % 1038,8 hPa 0,0 l/m 9,9 km/h (2 Bft) W-SW 242 0 min 0,000 mm 0,0 UV-I 0 W/m 3,8 C 1,3 C 16,1 km/h (3 Bft) 99,15 %
09.12.2015 19:15 4,2 C 97 % 1038,9 hPa 0,0 l/m 9,8 km/h (2 Bft) SW 215 0 min 0,000 mm 0,0 UV-I 0 W/m 3,8 C 1,3 C 16,1 km/h (3 Bft) 99,17 %
09.12.2015 19:20 4,2 C 97 % 1038,9 hPa 0,2 l/m 11,7 km/h (2 Bft) SW 220 0 min 0,000 mm 0,0 UV-I 0 W/m 3,8 C 0,0 C 17,7 km/h (3 Bft) 100,00 %
09.12.2015 19:25 4,2 C 97 % 1039,0 hPa 0,0 l/m 11,7 km/h (2 Bft) SW 232 0 min 0,000 mm 0,0 UV-I 0 W/m 3,8 C 0,0 C 17,7 km/h (3 Bft) 99,21 %
09.12.2015 19:30 4,3 C 97 % 1039,1 hPa 0,0 l/m 11,1 km/h (2 Bft) SW 230 0 min 0,000 mm 0,0 UV-I 0 W/m 3,9 C 0,5 C 16,1 km/h (3 Bft) 98,00 %
09.12.2015 19:35 4,3 C 97 % 1039,1 hPa 0,2 l/m 9,6 km/h (2 Bft) SW 229 0 min 0,000 mm 0,0 UV-I 0 W/m 3,9 C 1,6 C 14,5 km/h (3 Bft) 99,24 %
09.12.2015 19:40 4,3 C 97 % 1039,1 hPa 0,0 l/m 10,1 km/h (2 Bft) SW 231 0 min 0,000 mm 0,0 UV-I 0 W/m 3,9 C 1,2 C 17,7 km/h (3 Bft) 98,21 %
09.12.2015 19:45 4,3 C 97 % 1039,1 hPa 0,0 l/m 8,5 km/h (2 Bft) SW 227 0 min 0,000 mm 0,0 UV-I 0 W/m 3,9 C 2,5 C 14,5 km/h (3 Bft) 99,19 %
09.12.2015 19:50 4,3 C 97 % 1039,2 hPa 0,0 l/m 8,8 km/h (2 Bft) W-SW 243 0 min 0,000 mm 0,0 UV-I 0 W/m 3,9 C 2,2 C 14,5 km/h (3 Bft) 100,00 %
09.12.2015 19:55 4,3 C 97 % 1039,2 hPa 0,0 l/m 8,4 km/h (2 Bft) W-SW 257 0 min 0,000 mm 0,0 UV-I 0 W/m 3,9 C 2,5 C 12,9 km/h (3 Bft) 98,21 %
09.12.2015 20:00 4,3 C 97 % 1039,1 hPa 0,0 l/m 8,2 km/h (2 Bft) W-SW 257 0 min 0,000 mm 0,0 UV-I 0 W/m 3,9 C 2,7 C 14,5 km/h (3 Bft) 99,11 %
09.12.2015 20:05 4,3 C 97 % 1039,1 hPa 0,0 l/m 7,9 km/h (2 Bft) S 180 0 min 0,000 mm 0,0 UV-I 0 W/m 3,9 C 3,0 C 12,9 km/h (3 Bft) 99,19 %
09.12.2015 20:10 4,4 C 97 % 1039,1 hPa 0,0 l/m 9,6 km/h (2 Bft) W-SW 257 0 min 0,000 mm 0,0 UV-I 0 W/m 4,0 C 1,7 C 14,5 km/h (3 Bft) 97,39 %
09.12.2015 20:15 4,4 C 97 % 1039,1 hPa 0,0 l/m 9,4 km/h (2 Bft) S-SW 209 0 min 0,000 mm 0,0 UV-I 0 W/m 4,0 C 1,9 C 14,5 km/h (3 Bft) 95,87 %
09.12.2015 20:20 4,4 C 97 % 1039,1 hPa 0,0 l/m 9,5 km/h (2 Bft) SW 231 0 min 0,000 mm 0,0 UV-I 0 W/m 4,0 C 1,8 C 16,1 km/h (3 Bft) 97,30 %
09.12.2015 20:25 4,5 C 97 % 1039,1 hPa 0,0 l/m 10,4 km/h (2 Bft) SW 221 0 min 0,000 mm 0,0 UV-I 0 W/m 4,1 C 1,2 C 17,7 km/h (3 Bft) 96,77 %
09.12.2015 20:30 4,5 C 97 % 1039,1 hPa 0,0 l/m 11,6 km/h (2 Bft) SW 215 0 min 0,000 mm 0,0 UV-I 0 W/m 4,1 C 0,4 C 16,1 km/h (3 Bft) 97,25 %
09.12.2015 20:35 4,6 C 97 % 1039,0 hPa 0,0 l/m 8,6 km/h (2 Bft) SW 223 0 min 0,000 mm 0,0 UV-I 0 W/m 4,2 C 2,7 C 14,5 km/h (3 Bft) 97,44 %
09.12.2015 20:40 4,6 C 97 % 1039,1 hPa 0,0 l/m 9,5 km/h (2 Bft) SW 234 0 min 0,000 mm 0,0 UV-I 0 W/m 4,2 C 2,0 C 17,7 km/h (3 Bft) 96,85 %
09.12.2015 20:45 4,6 C 97 % 1039,0 hPa 0,0 l/m 12,7 km/h (3 Bft) S-SW 202 0 min 0,000 mm 0,0 UV-I 0 W/m 4,2 C -0,1 C 22,5 km/h (4 Bft) 96,30 %
09.12.2015 20:50 4,5 C 97 % 1039,1 hPa 0,0 l/m 13,6 km/h (3 Bft) W-SW 239 0 min 0,000 mm 0,0 UV-I 0 W/m 4,1 C -0,8 C 20,9 km/h (4 Bft) 98,43 %
09.12.2015 20:55 4,4 C 97 % 1039,2 hPa 0,0 l/m 14,0 km/h (3 Bft) W-SW 245 0 min 0,000 mm 0,0 UV-I 0 W/m 4,0 C -1,1 C 19,3 km/h (3 Bft) 98,11 %
09.12.2015 21:00 4,4 C 97 % 1039,2 hPa 0,0 l/m 12,1 km/h (2 Bft) W-SW 239 0 min 0,000 mm 0,0 UV-I 0 W/m 4,0 C 0,0 C 17,7 km/h (3 Bft) 95,83 %
09.12.2015 21:05 4,4 C 97 % 1039,2 hPa 0,0 l/m 12,1 km/h (2 Bft) W-SW 240 0 min 0,000 mm 0,0 UV-I 0 W/m 4,0 C 0,0 C 19,3 km/h (3 Bft) 99,19 %
09.12.2015 21:10 4,4 C 97 % 1039,2 hPa 0,0 l/m 9,8 km/h (2 Bft) SW 220 0 min 0,000 mm 0,0 UV-I 0 W/m 4,0 C 1,6 C 16,1 km/h (3 Bft) 99,15 %
09.12.2015 21:15 4,4 C 97 % 1039,3 hPa 0,0 l/m 11,5 km/h (2 Bft) SW 223 0 min 0,000 mm 0,0 UV-I 0 W/m 4,0 C 0,4 C 17,7 km/h (3 Bft) 97,32 %
09.12.2015 21:20 4,4 C 97 % 1039,4 hPa 0,0 l/m 13,4 km/h (3 Bft) W-SW 240 0 min 0,000 mm 0,0 UV-I 0 W/m 4,0 C -0,8 C 19,3 km/h (3 Bft) 98,35 %
09.12.2015 21:25 4,5 C 97 % 1039,3 hPa 0,0 l/m 13,4 km/h (3 Bft) SW 235 0 min 0,000 mm 0,0 UV-I 0 W/m 4,1 C -0,7 C 19,3 km/h (3 Bft) 100,00 %
09.12.2015 21:30 4,6 C 97 % 1039,3 hPa 0,0 l/m 11,5 km/h (2 Bft) SW 215 0 min 0,000 mm 0,0 UV-I 0 W/m 4,2 C 0,6 C 19,3 km/h (3 Bft) 100,00 %
09.12.2015 21:35 4,6 C 97 % 1039,3 hPa 0,0 l/m 12,2 km/h (2 Bft) W-SW 250 0 min 0,000 mm 0,0 UV-I 0 W/m 4,2 C 0,2 C 17,7 km/h (3 Bft) 100,00 %
09.12.2015 21:40 4,6 C 97 % 1039,3 hPa 0,2 l/m 10,4 km/h (2 Bft) SW 225 0 min 0,000 mm 0,0 UV-I 0 W/m 4,2 C 1,3 C 17,7 km/h (3 Bft) 97,37 %
09.12.2015 21:45 4,6 C 97 % 1039,3 hPa 0,0 l/m 10,7 km/h (2 Bft) W-SW 241 0 min 0,000 mm 0,0 UV-I 0 W/m 4,2 C 1,1 C 16,1 km/h (3 Bft) 100,00 %
09.12.2015 21:50 4,6 C 97 % 1039,3 hPa 0,0 l/m 9,9 km/h (2 Bft) SW 215 0 min 0,000 mm 0,0 UV-I 0 W/m 4,2 C 1,7 C 16,1 km/h (3 Bft) 99,29 %
09.12.2015 21:55 4,6 C 97 % 1039,3 hPa 0,0 l/m 9,2 km/h (2 Bft) SW 236 0 min 0,000 mm 0,0 UV-I 0 W/m 4,2 C 2,2 C 14,5 km/h (3 Bft) 100,00 %
09.12.2015 22:00 4,6 C 97 % 1039,3 hPa 0,0 l/m 9,4 km/h (2 Bft) W-SW 238 0 min 0,000 mm 0,0 UV-I 0 W/m 4,2 C 2,1 C 14,5 km/h (3 Bft) 100,00 %
09.12.2015 22:05 4,7 C 97 % 1039,2 hPa 0,0 l/m 9,8 km/h (2 Bft) SW 219 0 min 0,000 mm 0,0 UV-I 0 W/m 4,3 C 1,9 C 14,5 km/h (3 Bft) 97,56 %
09.12.2015 22:10 4,7 C 97 % 1039,3 hPa 0,0 l/m 7,6 km/h (2 Bft) SW 228 0 min 0,000 mm 0,0 UV-I 0 W/m 4,3 C 3,6 C 11,3 km/h (2 Bft) 99,17 %
09.12.2015 22:15 4,7 C 97 % 1039,2 hPa 0,0 l/m 7,1 km/h (2 Bft) SW 227 0 min 0,000 mm 0,0 UV-I 0 W/m 4,3 C 4,1 C 11,3 km/h (2 Bft) 100,00 %
09.12.2015 22:20 4,7 C 96 % 1039,2 hPa 0,0 l/m 7,4 km/h (2 Bft) SW 230 0 min 0,000 mm 0,0 UV-I 0 W/m 4,1 C 3,8 C 11,3 km/h (2 Bft) 97,04 %
09.12.2015 22:25 4,6 C 96 % 1039,2 hPa 0,0 l/m 7,8 km/h (2 Bft) SW 232 0 min 0,000 mm 0,0 UV-I 0 W/m 4,0 C 3,4 C 12,9 km/h (3 Bft) 98,28 %
09.12.2015 22:30 4,6 C 96 % 1039,3 hPa 0,0 l/m 10,0 km/h (2 Bft) SW 233 0 min 0,000 mm 0,0 UV-I 0 W/m 4,0 C 1,6 C 16,1 km/h (3 Bft) 94,17 %
09.12.2015 22:35 4,6 C 96 % 1039,3 hPa 0,0 l/m 8,6 km/h (2 Bft) S-SW 192 0 min 0,000 mm 0,0 UV-I 0 W/m 4,0 C 2,7 C 14,5 km/h (3 Bft) 97,52 %
09.12.2015 22:40 4,7 C 96 % 1039,3 hPa 0,0 l/m 8,0 km/h (2 Bft) SW 225 0 min 0,000 mm 0,0 UV-I 0 W/m 4,1 C 3,3 C 12,9 km/h (3 Bft) 94,92 %
09.12.2015 22:45 4,6 C 96 % 1039,3 hPa 0,0 l/m 9,1 km/h (2 Bft) SW 223 0 min 0,000 mm 0,0 UV-I 0 W/m 4,0 C 2,3 C 14,5 km/h (3 Bft) 96,30 %
09.12.2015 22:50 4,7 C 97 % 1039,3 hPa 0,0 l/m 9,5 km/h (2 Bft) W-SW 241 0 min 0,000 mm 0,0 UV-I 0 W/m 4,3 C 2,1 C 16,1 km/h (3 Bft) 96,61 %
09.12.2015 22:55 4,7 C 96 % 1039,3 hPa 0,0 l/m 11,7 km/h (2 Bft) SW 235 0 min 0,000 mm 0,0 UV-I 0 W/m 4,1 C 0,6 C 17,7 km/h (3 Bft) 97,52 %
09.12.2015 23:00 4,7 C 96 % 1039,3 hPa 0,0 l/m 10,8 km/h (2 Bft) SW 232 0 min 0,000 mm 0,0 UV-I 0 W/m 4,1 C 1,2 C 17,7 km/h (3 Bft) 99,15 %
09.12.2015 23:05 4,7 C 96 % 1039,4 hPa 0,0 l/m 8,9 km/h (2 Bft) SW 227 0 min 0,000 mm 0,0 UV-I 0 W/m 4,1 C 2,6 C 16,1 km/h (3 Bft) 98,31 %
09.12.2015 23:10 4,7 C 96 % 1039,4 hPa 0,0 l/m 8,4 km/h (2 Bft) W-SW 258 0 min 0,000 mm 0,0 UV-I 0 W/m 4,1 C 3,0 C 14,5 km/h (3 Bft) 99,17 %
09.12.2015 23:15 4,7 C 96 % 1039,5 hPa 0,0 l/m 6,8 km/h (2 Bft) W-SW 241 0 min 0,000 mm 0,0 UV-I 0 W/m 4,1 C 4,4 C 11,3 km/h (2 Bft) 97,25 %
09.12.2015 23:20 4,6 C 96 % 1039,5 hPa 0,0 l/m 5,4 km/h (1 Bft) SW 220 0 min 0,000 mm 0,0 UV-I 0 W/m 4,0 C 4,6 C 8,0 km/h (2 Bft) 97,58 %
09.12.2015 23:25 4,6 C 96 % 1039,5 hPa 0,0 l/m 5,4 km/h (1 Bft) SW 230 0 min 0,000 mm 0,0 UV-I 0 W/m 4,0 C 4,6 C 8,0 km/h (2 Bft) 99,17 %
09.12.2015 23:30 4,6 C 97 % 1039,6 hPa 0,0 l/m 4,3 km/h (1 Bft) W-SW 246 0 min 0,000 mm 0,0 UV-I 0 W/m 4,2 C 4,6 C 6,4 km/h (2 Bft) 98,11 %
09.12.2015 23:35 4,6 C 97 % 1039,6 hPa 0,0 l/m 5,0 km/h (1 Bft) W-SW 248 0 min 0,000 mm 0,0 UV-I 0 W/m 4,2 C 4,6 C 11,3 km/h (2 Bft) 99,17 %
09.12.2015 23:40 4,6 C 97 % 1039,6 hPa 0,0 l/m 3,9 km/h (1 Bft) W-SW 243 0 min 0,000 mm 0,0 UV-I 0 W/m 4,2 C 4,6 C 6,4 km/h (2 Bft) 99,17 %
09.12.2015 23:45 4,6 C 97 % 1039,6 hPa 0,0 l/m 3,6 km/h (1 Bft) SW 228 0 min 0,000 mm 0,0 UV-I 0 W/m 4,2 C 4,6 C 6,4 km/h (2 Bft) 98,31 %
09.12.2015 23:50 4,6 C 96 % 1039,6 hPa 0,0 l/m 5,3 km/h (1 Bft) W 269 0 min 0,000 mm 0,0 UV-I 0 W/m 4,0 C 4,6 C 11,3 km/h (2 Bft) 99,17 %
09.12.2015 23:55 4,6 C 96 % 1039,7 hPa 0,0 l/m 4,6 km/h (1 Bft) W-SW 251 0 min 0,000 mm 0,0 UV-I 0 W/m 4,0 C 4,6 C 8,0 km/h (2 Bft) 99,06 %
_ Min-Zeit 01:50 15:30 01:05 - 09:10 - - - - - - 01:50 15:25 01:05 06:15
Minimum _ 0,1 C 92 % 1033,5 hPa - 0,0 km/h (0 Bft) - - - - - - -0,0 C -4,5 C 1,6 km/h (1 Bft) 93,86 %
_ Max-Zeit 15:25 00:00 23:55 17:30 15:25 - - 00:00 11:00 00:00 12:05 14:45 23:20 15:25 00:30
Maximum _ 5,2 C 99 % 1039,7 hPa 0,4 l/m 24,6 km/h
W-SW (4 Bft)
- - 0 min 0,026 mm 0,0 UV-I 108 W/m 4,4 C 4,6 C 41,8 km/h
W (6 Bft)
100,00 %
Durchschnitt _ 2,4 C 97 % 1035,5 hPa #6,8 l/m 7,0 km/h (2 Bft) SW - #0 min. #0,152 mm 0,0 UV-I 44 W/m 2,1 C 0,7 C 11,8 km/h (2 Bft) 98,42 %